LSZRLSZA

Guest
Details From LSZR - St.Gallen-Altenrhein
To LSZA - Lugano
Flight Number -
Tags generated
Created
Modified
Stats Distance 93 nm / 173 km
Max Altitude 2,300 ft / 701 m
Waypoints 3
Social Downloads 2
Likes 0
Share VATSIM

Download

Looking for another format? Having issues loading an existing format? Contact us
Advertisement - Login to hide

Notes

Basic altitude profile: - Ascent Rate: 2500ft/min - Ascent Speed: 250kts - Cruise Altitude: 35000ft - Cruise Speed: 420kts - Descent Rate: 1500ft/min - Descent Speed: 250kts Options: - Use NATs: no - Use PACOTS: no - Use low airways: yes - Use high airways: no

Route

LSZR ABESI LSZA

ID Type Via Altitude Latitude Longitude Leg Dist Tot Dist Heading (true) Name
O LSZR APT - 0 ft / 0 m 47.48556˚ 9.56074˚ - 0 nm - St.Gallen-Altenrhein
ABESI FIX - 2,300 ft / 701 m 46.15972˚ 9.04278˚ 82 nm 82 nm 195° / 195° -
O LSZA APT - 0 ft / 0 m 46.00428˚ 8.91058˚ 10 nm 93 nm 211° / 210° Lugano

Altitude Profile

Advertisement - Login to hide

LSZR

Details ICAO LSZR (ACH)
Name St.Gallen-Altenrhein
Region Switzerland
Timezone Europe/Zurich (UTC+1.0)
Stats Elevation 1,306 ft / 398 m (AMSL)
Location 47.485559° 9.560741°
Runways 2
Magnetic Variation 2.596° E

METAR

LSZR 131650Z VRB01KT 9999 BKN060 01/M00 Q1009 NOSIG RMK M

Decode

TAF

Not found

Departure Runways

ID Width Length Bearing (true) Bearing (mag) Surface Threshold Offset Overrun Length
10 98 ft / 30 m 4,909 ft / 1,496 m 98.79° 96.19° Asphalt 328 ft / 100 m 0 ft / 0 m
10L 75 ft / 23 m 1,970 ft / 601 m 98.80° 96.20° Grass 0 ft / 0 m 0 ft / 0 m
28 98 ft / 30 m 4,909 ft / 1,496 m 278.81° 276.21° Asphalt 246 ft / 75 m 0 ft / 0 m
28R 75 ft / 23 m 1,970 ft / 601 m 278.80° 276.20° Grass 0 ft / 0 m 0 ft / 0 m

LSZA

Details ICAO LSZA (LUG)
Name Lugano
Region Switzerland
Timezone Europe/Zurich (UTC+1.0)
Stats Elevation 915 ft / 279 m (AMSL)
Location 46.004275° 8.910579°
Runways 1
Magnetic Variation 2.423° E

METAR

LSZA 131650Z 34002KT CAVOK M00/M01 Q1015 NOSIG

Decode

TAF

Not found

Destination Runways

ID Width Length Bearing (true) Bearing (mag) Surface Threshold Offset Overrun Length
01 98 ft / 30 m 4,430 ft / 1,350 m 18.79° 16.37° Asphalt 361 ft / 110 m 0 ft / 0 m
19 98 ft / 30 m 4,430 ft / 1,350 m 198.79° 196.37° Asphalt 673 ft / 205 m 0 ft / 0 m

Approach Navaids

Runway Type Ident Frequency Range Bearing (true) Bearing (mag) Slope Elevation
01 Localiser ILU 111.50 MHz 18 nm / 33 km 18.79° 16.37° - 928 ft / 283 m (AMSL)
01 Glidescope ILU 111.50 MHz 10 nm / 19 km 19.99° 17.57° 6.00° 928 ft / 283 m (AMSL)
01 DME ILU 111.50 MHz 18 nm / 33 km - - - 928 ft / 283 m (AMSL)

Popular Alternatives